[[{"header":{"parameterUnit":"m.s-1","parameterCategory":1,"la1":30.2992,"la2":30.254,"lo1":-89.0895,"lo2":-89.0443,"dy":0.0025,"dx":0.0025,"nx":19,"ny":19,"refTime":"2026-05-23T21:00:00:Z","depth":0,"parameterNumber":2,"parameterNumberName":"U-component_of_WINDS"},"data":[0,0,0,0.5883,0.5884,0.5902,0.5902,0.5935,0.5936,0,0,0,0,0,0,0,0,0,0,0,0.5884,0.5885,0.5883,0.5884,0.5902,0.5902,0.5935,0.5936,0,0,0,0,0,0,0,0,0,0,0,0.5884,0.5885,0.5885,0.5884,0.5902,0.5902,0.5935,0.5918,0,0,0,0,0,0,0,0,0,0,0.5899,0.5906,0.5885,0.5885,0.5884,0.5902,0.5902,0.5917,0.5919,0.5932,0,0.5944,0,0.5941,0.5939,0.5939,0,0,0,0.5879,0.5904,0.5903,0.5885,0.5884,0.5902,0.5893,0.5918,0.592,0.5934,0.5945,0.5946,0.5941,0.5939,0.5939,0.6027,0.6027,0,0,0.5878,0.5891,0.5902,0.5905,0.5903,0.5892,0.5893,0.5919,0.5931,0.5945,0.5946,0.5942,0.5939,0.5939,0.6026,0.6027,0,0,0,0.5879,0.5891,0.5889,0.5904,0.5906,0.5893,0.5894,0.593,0.5929,0.5947,0.5942,0.5939,0.594,0.6026,0.6026,0.6069,0,0,0,0.5878,0.5891,0.5889,0.5897,0.5906,0.5919,0.5905,0.5927,0.5929,0.5942,0.5939,0.594,0.6025,0.6026,0.6067,0.6088,0,0,0,0.5881,0.5891,0.5896,0.5897,0.5905,0.5918,0.5918,0.5927,0.5927,0.5939,0.594,0.6024,0.6026,0.6064,0.6084,0.6114,0,0,0,0.5888,0.5934,0.5897,0.5946,0.5905,0.5944,0.5917,0.5946,0.5961,0.594,0.6025,0.6026,0.6064,0.6081,0.6112,0.6142,0.6155,0,0,0.5953,0.5942,0.597,0.5937,0.5986,0.5941,0.5996,0.5998,0.5988,0.6014,0.6016,0.6068,0.6083,0.6113,0.6229,0.624,0,0,0,0.5995,0.6015,0.6025,0.604,0.6043,0.6047,0.6039,0.604,0.6062,0.6004,0.6087,0.6096,0.6113,0.6126,0.6136,0.615,0.6033,0.6033,0.6033,0.6104,0.6089,0.6134,0.612,0.6135,0.6127,0.6137,0.6137,0.6117,0.6137,0.6144,0.6217,0.6233,0.624,0.6255,0.6159,0.616,0.616,0.616,0.6197,0.6223,0.6195,0.6229,0.6212,0.624,0.6234,0.6219,0.6242,0.6209,0.6224,0.6189,0.6253,0.6265,0.6163,0.6162,0.6162,0.6162,0.6161,0.6267,0.6277,0.6277,0.6297,0.6314,0.6299,0.6323,0.6306,0.6291,0.6306,0.6312,0.6311,0.6308,0.631,0.631,0.631,0.631,0.6311,0.6311,0.6339,0.6338,0.636,0.6366,0.6374,0.6381,0.6374,0.638,0.6384,0.637,0.637,0.6348,0.6262,0.6241,0.6315,0.6314,0.6313,0.6313,0.6313,0.6438,0.6413,0.6447,0.6455,0.6461,0.6479,0.6458,0.6474,0.6477,0.6489,0.6464,0.6403,0.6391,0.6384,0.6366,0.6467,0.6467,0.6467,0.6467,0.6497,0.6489,0.652,0.6533,0.6544,0.6528,0.6567,0.6562,0.6552,0.6553,0.6536,0.6511,0.6504,0.6496,0.6486,0.6469,0.6594,0.6595,0.6595,0.6556,0.6549,0.6585,0.6575,0.6579,0.6583,0.6619,0.6634,0.6618,0.6599,0.6553,0.6548,0.6507,0.6495,0.6475,0.646,0.6428,0,0]},{"header":{"parameterUnit":"m.s-1","parameterCategory":1,"la1":30.2992,"la2":30.254,"lo1":-89.0895,"lo2":-89.0443,"dy":0.0025,"dx":0.0025,"nx":19,"ny":19,"refTime":"2026-05-23T21:00:00:Z","depth":0,"parameterNumber":3,"parameterNumberName":"V-component_of_WINDS"},"data":[0,0,0,2.5681,2.5679,2.5593,2.5592,2.5487,2.5486,0,0,0,0,0,0,0,0,0,0,0,2.5713,2.5712,2.5681,2.5679,2.5593,2.5592,2.5487,2.5486,0,0,0,0,0,0,0,0,0,0,0,2.5713,2.5712,2.5712,2.5679,2.5593,2.5592,2.5487,2.555,0,0,0,0,0,0,0,0,0,0,2.5632,2.5669,2.5712,2.5712,2.5678,2.5593,2.5592,2.5552,2.5546,2.5529,0,2.5519,0,2.5501,2.5479,2.5479,0,0,0,2.5673,2.5674,2.5646,2.5712,2.5678,2.5593,2.563,2.5549,2.5541,2.552,2.5517,2.5513,2.5499,2.5479,2.5478,2.5409,2.5409,0,0,2.5678,2.5699,2.5651,2.5641,2.5659,2.5633,2.5627,2.5544,2.5541,2.5517,2.551,2.5497,2.5478,2.5477,2.5409,2.5409,0,0,0,2.5696,2.5703,2.5676,2.5646,2.563,2.5631,2.5624,2.5544,2.5534,2.5509,2.5496,2.5477,2.5476,2.5409,2.5409,2.5429,0,0,0,2.5698,2.5713,2.5679,2.5691,2.5632,2.5587,2.5627,2.554,2.553,2.5497,2.5477,2.5475,2.5409,2.5409,2.5428,2.5434,0,0,0,2.5716,2.5715,2.5705,2.5692,2.5657,2.5588,2.5573,2.5537,2.5522,2.5479,2.5475,2.5409,2.5409,2.5428,2.5433,2.5422,0,0,0,2.574,2.5722,2.5706,2.568,2.5657,2.5602,2.5573,2.5529,2.5495,2.5477,2.5409,2.5409,2.5428,2.5432,2.5422,2.5417,2.5418,0,0,2.5729,2.5721,2.5704,2.5688,2.5642,2.5613,2.5568,2.5514,2.5488,2.5436,2.5434,2.5428,2.5433,2.5422,2.5412,2.5413,0,0,0,2.5708,2.5696,2.5679,2.5649,2.561,2.5576,2.5528,2.5507,2.5463,2.5467,2.5421,2.5423,2.5416,2.5412,2.5413,2.5405,2.5409,2.5409,2.5409,2.5721,2.5693,2.5663,2.5625,2.5595,2.5547,2.5519,2.5483,2.546,2.545,2.5434,2.5432,2.5429,2.5429,2.5421,2.5429,2.5429,2.5429,2.5429,2.5702,2.5681,2.5654,2.5615,2.5584,2.555,2.5502,2.5487,2.5449,2.5441,2.5433,2.5427,2.5431,2.5422,2.5431,2.543,2.543,2.543,2.543,2.5707,2.5692,2.5671,2.5625,2.5593,2.5553,2.5519,2.549,2.5463,2.5455,2.5435,2.5435,2.543,2.5448,2.5448,2.5448,2.5448,2.5448,2.5448,2.5721,2.5696,2.5673,2.5632,2.5609,2.5576,2.5527,2.5503,2.5468,2.545,2.545,2.5427,2.5437,2.544,2.5448,2.5448,2.5448,2.5448,2.5448,2.5711,2.5709,2.5673,2.5651,2.56,2.557,2.5535,2.5489,2.5464,2.5448,2.5428,2.544,2.5429,2.5428,2.543,2.5435,2.5435,2.5435,2.5435,2.5715,2.5708,2.5666,2.5632,2.5596,2.5562,2.5519,2.5481,2.544,2.5423,2.5418,2.5419,2.542,2.5408,2.5408,2.5409,2.5408,2.5408,2.5408,2.5707,2.5695,2.5666,2.5631,2.5589,2.5553,2.5512,2.5472,2.5425,2.5407,2.5409,2.541,2.541,2.5412,2.5393,2.5394,2.5396,0,0]}]]